Knob Noster, MO

2:00 PM CST on February 13, 2016 (GMT -0600)
Whiteman Air Force Base

Weather History for KSZL - October, 2013

Change the Weather History Date:

Monday, October 21, 2013

  Actual Average Record
Temperature  
Mean Temperature 46 °F -  
Max Temperature 54 °F 64 °F 83 °F (2015)
Min Temperature 37 °F 45 °F 29 °F (2011)
Degree Days  
Heating Degree Days 20    
Moisture  
Dew Point 36 °F    
Average Humidity 66    
Maximum Humidity 86    
Minimum Humidity 41    
Precipitation  
Precipitation 0.00 in - - ()
Sea Level Pressure  
Sea Level Pressure 30.06 in    
Wind  
Wind Speed 8 mph (NW)    
Max Wind Speed 16 mph    
Max Gust Speed 23 mph    
Visibility 10 miles    
Events      
Averages and records for this station are not official NWS values.
T = Trace of Precipitation, MM = Missing Value Source: NWS Daily Summary

Daily Weather History Graph

Daily Weather History Graph

Search for Another Location

Airport or City:

Trip Planner

Search our weather history database for the weather conditions in past years. The results will help you decide how hot, cold, wet, or windy it might be!

Date:

Astronomy

Oct. 21, 2013 Rise Set
Actual Time 7:29 AM CDT 6:27 PM CDT
Civil Twilight 7:02 AM CDT 6:54 PM CDT
Nautical Twilight 6:31 AM CDT 7:25 PM CDT
Astronomical Twilight 6:00 AM CDT 7:55 PM CDT
Moon 8:22 PM CDT (10/21) 10:03 AM CDT (10/21)
Length of Visible Light 11h 51m
Length of Day
10h 57m
Waning Gibbous, 92% of the Moon is Illuminated
Oct 21
Waning Gibbous
Oct 26
Last Quarter
Nov 3
New
Nov 9
First Quarter
Nov 17
Full

Hourly Weather History & Observations

Time (CDT) Temp. Windchill Dew Point Humidity Pressure Visibility Wind Dir Wind Speed Gust Speed Precip Events Conditions
12:58 AM 52.3 °F - 41.0 °F 65% 29.93 in 10.0 mi SW 3.5 mph - N/A   Scattered Clouds
1:58 AM 50.7 °F - 42.4 °F 73% 29.94 in 10.0 mi NW 5.8 mph - N/A   Clear
2:58 AM 52.2 °F - 42.8 °F 70% 29.95 in 10.0 mi North 10.4 mph - N/A   Scattered Clouds
3:58 AM 51.6 °F - 41.0 °F 67% 29.97 in 10.0 mi North 13.8 mph - N/A   Mostly Cloudy
4:58 AM 50.2 °F - 38.8 °F 65% 30.00 in 10.0 mi NNW 16.1 mph 23.0 mph N/A   Mostly Cloudy
5:58 AM 47.8 °F - 39.2 °F 72% 30.04 in 10.0 mi North 16.1 mph 19.6 mph N/A   Overcast
6:58 AM 44.6 °F 39.2 °F 37.6 °F 76% 30.05 in 10.0 mi NNW 10.4 mph - N/A   Clear
7:20 AM 42.8 °F 36.6 °F 37.4 °F 81% 30.05 in 10.0 mi NNW 11.5 mph - N/A   Clear
7:45 AM 42.8 °F 36.6 °F 37.4 °F 81% 30.06 in 10.0 mi NNW 11.5 mph - N/A   Mostly Cloudy
7:58 AM 43.0 °F 37.7 °F 36.9 °F 79% 30.08 in 10.0 mi NNW 9.2 mph - 0.00 in   Overcast
8:23 AM 42.8 °F 37.0 °F 37.4 °F 81% 30.08 in 10.0 mi NNW 10.4 mph - N/A   Mostly Cloudy
8:58 AM 43.7 °F 37.7 °F 36.7 °F 76% 30.11 in 10.0 mi NNW 11.5 mph - N/A   Overcast
9:58 AM 45.5 °F 39.6 °F 36.3 °F 70% 30.13 in 10.0 mi North 12.7 mph - N/A   Overcast
10:58 AM 48.4 °F - 36.1 °F 63% 30.12 in 10.0 mi North 11.5 mph - N/A   Mostly Cloudy
11:58 AM 48.9 °F - 33.6 °F 56% 30.12 in 10.0 mi NNW 9.2 mph - N/A   Mostly Cloudy
12:58 PM 50.2 °F - 34.2 °F 54% 30.12 in 10.0 mi NNW 5.8 mph - N/A   Mostly Cloudy
1:58 PM 51.6 °F - 32.5 °F 48% 30.09 in 10.0 mi NW 10.4 mph - N/A   Partly Cloudy
2:58 PM 53.6 °F - 31.3 °F 43% 30.07 in 10.0 mi NNW 8.1 mph - N/A   Partly Cloudy
3:58 PM 54.7 °F - 31.1 °F 41% 30.06 in 10.0 mi NNW 9.2 mph - N/A   Partly Cloudy
4:58 PM 54.3 °F - 30.7 °F 41% 30.06 in 10.0 mi WNW 6.9 mph - N/A   Clear
5:58 PM 52.7 °F - 30.9 °F 43% 30.06 in 10.0 mi WNW 3.5 mph - N/A   Clear
6:58 PM 49.5 °F - 32.2 °F 51% 30.07 in 10.0 mi West 3.5 mph - N/A   Clear
7:58 PM 42.6 °F - 32.4 °F 67% 30.08 in 10.0 mi South 2.3 mph - N/A   Clear
8:58 PM 38.3 °F - 33.6 °F 83% 30.08 in 10.0 mi Calm Calm - N/A   Clear
9:58 PM 37.0 °F 33.3 °F 33.3 °F 86% 30.08 in 10.0 mi South 4.6 mph - N/A   Clear
10:58 PM 37.9 °F 32.7 °F 32.2 °F 80% 30.07 in 10.0 mi South 6.9 mph - N/A   Clear
11:58 PM 38.1 °F 32.3 °F 32.2 °F 79% 30.06 in 10.0 mi South 8.1 mph - N/A   Clear